Location: Artiguedieu
(43.5000°N, 0.5454°E)
Time: 20:57:27
(UTC+00:00)

Transit 2A - Pass Details

Date: 31 July 2021
Orbit: 594 x 964 km, 66.7° (Epoch: 28 September)

Event Time Altitude Azimuth Distance (km) Brightness Sun altitude
Rises 07:28:25 0° 242° (WSW) 2,840 8.5 27.5°
Reaches altitude 10° 07:30:54 10° 255° (WSW) 1,964 7.7 28.0°
Maximum altitude 07:34:38 27° 314° (NW) 1,236 6.9 28.7°
Drops below altitude 10° 07:38:37 10° 12° (NNE) 2,099 8.5 29.4°
Sets 07:41:21 0° 25° (NNE) 3,080 9.4 29.9°
